{"data":{"norad_id":68751,"epoch":"2026-05-25T04:00:03.998880Z","epoch_age_seconds":63672,"freshness":"FRESH","line1":"1 68751U 26082Z   26145.16671295  .00016421  00000+0  30309-3 0  9991","line2":"2 68751  97.2855   8.8608 0001379 115.4944 171.4803 15.49175976  6007","mean_motion":15.49175976,"eccentricity":0.0001379,"inclination_deg":97.2855,"raan_deg":8.8608,"arg_perigee_deg":115.4944,"mean_anomaly_deg":171.4803,"bstar":0.00030309,"rev_number":600,"period_min":92.952642069631,"perigee_km":418.19802082699,"apogee_km":420.07270854517,"semimajor_km":6797.2723646861,"source":"CELESTRAK","updated_at":"2026-05-25T13:38:22.032051Z"}}